Location: Newark
(0.5300°S, 127.4800°E)
Time: 13:58:00
(UTC+00:00)

Vanguard 3 - Pass Details

Date: 22 September 2019
Orbit: 508 x 3262 km, 33.3° (Epoch: 18 October)

Event Time Altitude Azimuth Distance (km) Brightness Sun altitude
Rises 02:38:02 0° 316° (NW) 6,971 11.8 78.7°
Reaches altitude 10° 02:45:11 10° 332° (NNW) 6,152 11.7 80.5°
Maximum altitude 02:57:52 20° 12° (NNE) 5,286 11.6 83.6°
Drops below altitude 10° 03:09:20 10° 53° (NE) 5,576 11.6 86.4°
Sets 03:15:10 0° 69° (ENE) 6,165 11.7 87.8°
